Location: Bismarck
(46.7731°N, 100.8200°W)
Time: 20:22:09
(UTC-06:00)

ISS - Pass Details

Date: 25 November 2017
Orbit: 402 x 407 km, 51.6° (Epoch: 10 December)

Event Time Altitude Azimuth Distance (km) Brightness Sun altitude
Rises 00:01:43 0° 290° (WNW) 2,327 - -63.4°
Reaches altitude 10° 00:03:55 10° 299° (WNW) 1,465 - -63.5°
Maximum altitude 00:06:59 36° 8° (N) 665 - -63.6°
Drops below altitude 10° 00:10:03 10° 77° (ENE) 1,461 - -63.7°
Sets 00:12:13 0° 86° (E) 2,318 - -63.8°
